When you browse on this site, cookies collect data to enhance your experience and personalize the content and advertising you see.
Visit our Privacy Policy to learn more. By continuing to use the site, you agree to this use of cookies and data.
  • In Czech Republic
  • List of Countries
  • For 7 days
  • Water Temperature
  • Weather Map
  • Weather Widgets
  • user-avatar
    Login

    Hourly Weather Bafatá

    Today, 19 October, Saturday

    Time Temperature Precipitation Wind Pressure Humidity
    00:00 +27°C° 0 mm 1 mps 756 mmHg 94%
    01:00 +27°C° 0 mm 1 mps 756 mmHg 94%
    02:00 +27°C° 0 mm 1 mps 756 mmHg 95%
    03:00 +27°C° 0 mm 1 mps 756 mmHg 95%
    04:00 +26°C° 0 mm 1 mps 755 mmHg 96%
    05:00 +26°C° 0 mm 1 mps 755 mmHg 97%
    06:00 +27°C° 0 mm 1 mps 756 mmHg 93%
    07:00 +28°C° 0 mm 1 mps 756 mmHg 89%
    08:00 +29°C° 0 mm 1 mps 757 mmHg 86%
    09:00 +31°C° 0 mm 1 mps 757 mmHg 78%
    10:00 +33°C° 0 mm 1 mps 756 mmHg 71%
    11:00 +34°C° 0 mm 1 mps 756 mmHg 63%
    12:00 +35°C° 0 mm 1 mps 755 mmHg 60%
    13:00 +36°C° 0 mm 1 mps 755 mmHg 57%
    14:00 +36°C° 0 mm 1 mps 754 mmHg 53%
    15:00 +35°C° 0 mm 1 mps 754 mmHg 58%
    16:00 +34°C° 0 mm 1 mps 754 mmHg 62%
    17:00 +31°C° 0 mm 0 mps 754 mmHg 67%
    18:00 +32°C° 0 mm 1 mps 755 mmHg 73%
    19:00 +30°C° 0 mm 2 mps 755 mmHg 79%
    20:00 +29°C° 0 mm 2 mps 756 mmHg 85%
    21:00 +28°C° 0 mm 2 mps 756 mmHg 88%
    22:00 +28°C° 0 mm 2 mps 756 mmHg 91%
    23:00 +27°C° 0 mm 2 mps 756 mmHg 93%

    Tomorrow, 20 October, Sunday

    Time Temperature Precipitation Wind Pressure Humidity
    00:00 +27°C° 0 mm 2 mps 756 mmHg 94%
    01:00 +27°C° 0 mm 2 mps 756 mmHg 96%
    02:00 +26°C° 0 mm 2 mps 755 mmHg 97%
    03:00 +26°C° 0 mm 2 mps 755 mmHg 97%
    04:00 +26°C° 0 mm 1 mps 755 mmHg 98%
    05:00 +26°C° 0 mm 1 mps 755 mmHg 98%
    06:00 +27°C° 0 mm 1 mps 755 mmHg 93%
    07:00 +28°C° 0 mm 1 mps 756 mmHg 88%
    08:00 +29°C° 0 mm 1 mps 756 mmHg 83%
    09:00 +31°C° 0 mm 1 mps 756 mmHg 76%
    10:00 +32°C° 0 mm 2 mps 756 mmHg 69%
    11:00 +35°C° 0 mm 2 mps 756 mmHg 62%
    12:00 +35°C° 0 mm 2 mps 755 mmHg 59%
    13:00 +35°C° 0 mm 1 mps 755 mmHg 57%
    14:00 +36°C° 0 mm 1 mps 754 mmHg 54%
    15:00 +34°C° 0 mm 1 mps 754 mmHg 60%
    16:00 +33°C° 0 mm 1 mps 754 mmHg 66%
    17:00 +32°C° 0 mm 1 mps 754 mmHg 72%
    18:00 +31°C° 0 mm 2 mps 754 mmHg 78%
    19:00 +29°C° 0 mm 2 mps 755 mmHg 83%
    20:00 +28°C° 0 mm 2 mps 756 mmHg 88%
    21:00 +28°C° 0 mm 2 mps 756 mmHg 90%
    22:00 +27°C° 0 mm 2 mps 756 mmHg 92%
    23:00 +27°C° 0 mm 2 mps 756 mmHg 94%

    Day after tomorrow, 21 October, Monday

    Time Temperature Precipitation Wind Pressure Humidity
    00:00 +26°C° 0 mm 1 mps 756 mmHg 96%
    01:00 +26°C° 0 mm 1 mps 755 mmHg 97%
    02:00 +26°C° 0 mm 1 mps 755 mmHg 98%
    03:00 +26°C° 0 mm 1 mps 755 mmHg 98%
    04:00 +26°C° 0 mm 1 mps 755 mmHg 98%
    05:00 +26°C° 0 mm 1 mps 755 mmHg 99%
    06:00 +27°C° 0 mm 1 mps 756 mmHg 94%
    07:00 +28°C° 0 mm 1 mps 756 mmHg 89%
    08:00 +29°C° 0 mm 1 mps 757 mmHg 85%
    09:00 +31°C° 0 mm 1 mps 757 mmHg 77%
    10:00 +33°C° 0 mm 1 mps 756 mmHg 68%
    11:00 +36°C° 0 mm 1 mps 756 mmHg 60%
    12:00 +36°C° 0 mm 1 mps 755 mmHg 56%
    13:00 +35°C° 0 mm 0 mps 755 mmHg 52%
    14:00 +36°C° 0 mm 0 mps 754 mmHg 48%
    15:00 +34°C° 0.1 mm 0 mps 754 mmHg 53%
    16:00 +35°C° 0.1 mm 1 mps 754 mmHg 58%
    17:00 +33°C° 0.1 mm 1 mps 754 mmHg 63%
    18:00 +31°C° 0 mm 1 mps 755 mmHg 71%
    19:00 +30°C° 0 mm 2 mps 755 mmHg 79%
    20:00 +28°C° 0 mm 2 mps 756 mmHg 87%
    21:00 +28°C° 0 mm 2 mps 756 mmHg 89%
    22:00 +28°C° 0 mm 2 mps 756 mmHg 90%
    23:00 +27°C° 0 mm 2 mps 756 mmHg 92%

    22 October, Tuesday

    Time Temperature Precipitation Wind Pressure Humidity
    00:00 +27°C° 0 mm 2 mps 755 mmHg 93%
    01:00 +26°C° 0 mm 2 mps 755 mmHg 93%
    02:00 +26°C° 0 mm 1 mps 755 mmHg 94%
    03:00 +26°C° 0 mm 1 mps 755 mmHg 94%
    04:00 +25°C° 0 mm 1 mps 755 mmHg 94%
    05:00 +25°C° 0 mm 1 mps 755 mmHg 94%
    06:00 +26°C° 0 mm 1 mps 755 mmHg 89%
    07:00 +27°C° 0 mm 1 mps 756 mmHg 85%
    08:00 +29°C° 0 mm 1 mps 756 mmHg 80%
    09:00 +31°C° 0 mm 1 mps 756 mmHg 70%
    10:00 +33°C° 0 mm 1 mps 756 mmHg 60%
    11:00 +34°C° 0 mm 0 mps 756 mmHg 49%
    12:00 +36°C° 0 mm 1 mps 755 mmHg 47%
    13:00 +36°C° 0 mm 1 mps 754 mmHg 44%
    14:00 +36°C° 0 mm 1 mps 753 mmHg 42%
    15:00 +35°C° 0 mm 1 mps 753 mmHg 47%
    16:00 +33°C° 0 mm 1 mps 753 mmHg 53%
    17:00 +32°C° 0 mm 1 mps 753 mmHg 59%
    18:00 +31°C° 0 mm 1 mps 753 mmHg 59%
    19:00 +30°C° 0 mm 1 mps 754 mmHg 59%
    20:00 +29°C° 0 mm 1 mps 754 mmHg 60%
    21:00 +29°C° 0 mm 1 mps 754 mmHg 64%
    22:00 +28°C° 0 mm 1 mps 754 mmHg 69%
    23:00 +27°C° 0 mm 1 mps 754 mmHg 74%

    23 October, Wednesday

    Time Temperature Precipitation Wind Pressure Humidity
    00:00 +27°C° 0.2 mm 1 mps 754 mmHg 76%
    01:00 +25°C° 0.2 mm 0 mps 754 mmHg 79%
    02:00 +25°C° 0.2 mm 0 mps 753 mmHg 82%
    03:00 +25°C° 0 mm 0 mps 753 mmHg 82%
    04:00 +26°C° 0 mm 1 mps 753 mmHg 83%
    05:00 +26°C° 0 mm 1 mps 753 mmHg 83%
    06:00 +27°C° 0 mm 1 mps 754 mmHg 84%
    07:00 +27°C° 0 mm 1 mps 754 mmHg 84%
    08:00 +27°C° 0 mm 1 mps 754 mmHg 85%
    09:00 +28°C° 0 mm 1 mps 754 mmHg 80%
    10:00 +30°C° 0 mm 2 mps 754 mmHg 75%
    11:00 +31°C° 0 mm 3 mps 754 mmHg 70%
    12:00 +33°C° 0 mm 3 mps 754 mmHg 68%
    13:00 +33°C° 0 mm 3 mps 753 mmHg 67%
    14:00 +34°C° 0 mm 3 mps 753 mmHg 65%
    15:00 +32°C° 0 mm 2 mps 753 mmHg 69%
    16:00 +31°C° 0 mm 2 mps 753 mmHg 73%
    17:00 +30°C° 0 mm 2 mps 753 mmHg 77%
    18:00 +29°C° 0 mm 2 mps 754 mmHg 80%
    19:00 +28°C° 0 mm 1 mps 754 mmHg 83%
    20:00 +27°C° 0 mm 1 mps 755 mmHg 86%
    21:00 +27°C° 0 mm 1 mps 755 mmHg 87%
    22:00 +27°C° 0 mm 2 mps 755 mmHg 88%
    23:00 +27°C° 0 mm 2 mps 755 mmHg 88%

    24 October, Thursday

    Time Temperature Precipitation Wind Pressure Humidity
    00:00 +26°C° 0 mm 2 mps 755 mmHg 89%
    01:00 +26°C° 0 mm 2 mps 754 mmHg 89%
    02:00 +26°C° 0 mm 2 mps 754 mmHg 89%
    03:00 +25°C° 0 mm 1 mps 754 mmHg 90%
    04:00 +25°C° 0 mm 1 mps 754 mmHg 92%
    05:00 +25°C° 0 mm 1 mps 754 mmHg 93%
    06:00 +26°C° 0 mm 1 mps 755 mmHg 89%
    07:00 +28°C° 0 mm 1 mps 755 mmHg 85%
    08:00 +29°C° 0 mm 1 mps 756 mmHg 80%
    09:00 +31°C° 0 mm 1 mps 756 mmHg 73%
    10:00 +32°C° 0 mm 1 mps 756 mmHg 66%
    11:00 +34°C° 0 mm 1 mps 755 mmHg 60%
    12:00 +35°C° 0.1 mm 1 mps 755 mmHg 58%
    13:00 +35°C° 0.1 mm 1 mps 754 mmHg 57%
    14:00 +33°C° 0.1 mm 0 mps 754 mmHg 56%
    15:00 +32°C° 1.4 mm 0 mps 754 mmHg 64%
    16:00 +30°C° 1.4 mm 0 mps 754 mmHg 72%
    17:00 +29°C° 1.4 mm 0 mps 755 mmHg 79%
    18:00 +28°C° 0.1 mm 0 mps 755 mmHg 82%
    19:00 +29°C° 0.1 mm 1 mps 755 mmHg 85%
    20:00 +28°C° 0.1 mm 1 mps 756 mmHg 88%
    21:00 +28°C° 0 mm 1 mps 756 mmHg 90%
    22:00 +27°C° 0 mm 1 mps 756 mmHg 92%
    23:00 +27°C° 0 mm 2 mps 756 mmHg 93%
    Show more